Find Starlink 37115

NORAD ID: 68297 Int'l Des: 2026-057 Owner: SPXS Country: US Constellation: starlink operational
LEOCIRCULARRETROGRADE

現在のビュー

3D地球を読み込み中...

About Starlink 37115

Starlink 37115 (NORAD 68297) is a starlink constellation satellite (v2 mini) launched Mar 20, 2026 by SPXS of US. It operates in LEO, CIRCULAR, RETROGRADE orbit with a mass of 575.00 kg.

Starlink 37115について

説明を読み込み中...

次回通過

Passes for default location (London). Set your location on the main map for personalized predictions.

高度履歴

Loading altitude history...

軌道要素

1 68297U 26057D 26170.59894655 .00017997 00000-0 55824-3 0 9999
2 68297 97.2868 297.2744 0000720 91.5150 268.6175 15.33457808 14272
Epoch: Jun 19, 2026 • Age: 19 hours

現在のステータス

高度 472.0 km
速度 7.63 km/s
衛星直下点 -15.79°S, 104.97°W
打ち上げ日 Mar 20, 2026
運用期間 0.2 years
タイプ internet

技術仕様

分類 Payload
質量 575.00 kg
乾燥質量 530.00 kg
総質量 575.00 kg
長さ 0.30 m
直径 4.10 m
スパン 29.00 m
形状 Box + pan
製造者 SPXS
バスタイプ Starlink V2MO
フェーズステータス In Orbit
所有者/国 SPXS/US

Most Searched